| time (UTC) | temp C | wind direction | speed KPH | gust KPH | rain 1hr cm | rain 24hr cm | rain mn cm | humidity % | barometer mb |
| 20260504081505 | 11 | 280 | 0.0 | 3.2 | 0.00 | 0.03 | 0.00 | 72 | 1011.4 |
| 20260504044537 | 11 | 100 | 0.0 | 0.0 | 0.00 | 0.03 | 0.03 | 74 | 1013.4 |
| 20260504043039 | 11 | 100 | 0.0 | 0.0 | 0.00 | 0.03 | 0.03 | 73 | 1013.4 |
| 20260504041525 | 11 | 303 | 0.0 | 0.0 | 0.00 | 0.03 | 0.03 | 71 | 1013.4 |
| 20260504040022 | 12 | 303 | 0.0 | 0.0 | 0.00 | 0.03 | 0.03 | 68 | 1013.6 |
| 20260504034517 | 12 | 303 | 0.0 | 0.0 | 0.00 | 0.03 | 0.03 | 67 | 1013.9 |
| 20260504033012 | 13 | 303 | 0.0 | 0.0 | 0.00 | 0.03 | 0.03 | 62 | 1014.0 |
| 20260504031510 | 13 | 303 | 0.0 | 0.0 | 0.00 | 0.03 | 0.03 | 61 | 1014.1 |
| 20260504030004 | 14 | 309 | 0.0 | 3.2 | 0.00 | 0.03 | 0.03 | 59 | 1013.9 |
| 20260504024600 | 14 | 285 | 0.0 | 4.8 | 0.00 | 0.03 | 0.03 | 58 | 1013.5 |
| 20260504023055 | 14 | 311 | 0.0 | 4.8 | 0.00 | 0.03 | 0.03 | 58 | 1013.4 |
| 20260504021549 | 14 | 21 | 0.0 | 4.8 | 0.00 | 0.03 | 0.03 | 58 | 1013.0 |
| 20260504020056 | 15 | 5 | 0.0 | 3.2 | 0.00 | 0.03 | 0.03 | 58 | 1013.0 |
| 20260504014549 | 14 | 237 | 0.0 | 3.2 | 0.00 | 0.03 | 0.03 | 60 | 1013.2 |
| 20260504013040 | 15 | 271 | 0.0 | 0.0 | 0.00 | 0.03 | 0.03 | 61 | 1013.5 |
| 20260504011545 | 15 | 302 | 0.0 | 0.0 | 0.00 | 0.03 | 0.03 | 58 | 1013.7 |
| 20260504010039 | 15 | 292 | 0.0 | 3.2 | 0.00 | 0.03 | 0.03 | 54 | 1013.8 |
| 20260504004539 | 16 | 288 | 0.0 | 3.2 | 0.00 | 0.03 | 0.03 | 53 | 1013.5 |
| 20260504003037 | 16 | 310 | 0.0 | 3.2 | 0.00 | 0.03 | 0.03 | 51 | 1013.5 |
| 20260504001535 | 17 | 285 | 0.0 | 6.4 | 0.00 | 0.03 | 0.03 | 49 | 1013.2 |
| 20260504000028 | 17 | 327 | 3.2 | 9.7 | 0.00 | 0.03 | 0.03 | 47 | 1013.6 |
| 20260503234523 | 18 | 312 | 0.0 | 9.7 | 0.00 | 0.03 | 0.03 | 46 | 1013.7 |
| 20260503233018 | 18 | 242 | 3.2 | 8.0 | 0.00 | 0.03 | 0.03 | 46 | 1013.9 |
| 20260503231520 | 19 | 334 | 3.2 | 9.7 | 0.00 | 0.03 | 0.03 | 46 | 1014.1 |
| 20260503230011 | 19 | 318 | 3.2 | 11.3 | 0.00 | 0.03 | 0.03 | 42 | 1014.3 |
| 20260503224505 | 19 | 339 | 3.2 | 12.9 | 0.00 | 0.03 | 0.03 | 43 | 1014.6 |
| 20260503223104 | 20 | 180 | 1.6 | 12.9 | 0.00 | 0.03 | 0.03 | 44 | 1014.6 |
| 20260503221601 | 20 | 331 | 1.6 | 19.3 | 0.00 | 0.03 | 0.03 | 43 | 1015.2 |
| 20260503220052 | 19 | 335 | 1.6 | 14.5 | 0.00 | 0.03 | 0.03 | 45 | 1015.3 |
| 20260503214549 | 19 | 56 | 4.8 | 16.1 | 0.00 | 0.20 | 0.03 | 43 | 1015.5 |
| 20260503213043 | 19 | 327 | 4.8 | 19.3 | 0.00 | 0.20 | 0.03 | 43 | 1015.7 |
| 20260503211549 | 19 | 260 | 4.8 | 16.1 | 0.00 | 0.20 | 0.03 | 43 | 1015.9 |
| 20260503210034 | 19 | 310 | 4.8 | 14.5 | 0.00 | 0.20 | 0.03 | 43 | 1016.3 |
| 20260503204533 | 19 | 343 | 6.4 | 19.3 | 0.00 | 0.61 | 0.03 | 44 | 1016.5 |
| 20260503203024 | 18 | 327 | 1.6 | 19.3 | 0.00 | 0.61 | 0.03 | 47 | 1016.8 |
| 20260503201520 | 18 | 346 | 4.8 | 22.5 | 0.00 | 0.61 | 0.03 | 44 | 1017.1 |
| 20260503200016 | 18 | 309 | 4.8 | 16.1 | 0.00 | 0.61 | 0.03 | 46 | 1017.4 |
| 20260503194512 | 18 | 213 | 3.2 | 19.3 | 0.00 | 0.61 | 0.03 | 46 | 1017.8 |
| 20260503193007 | 18 | 260 | 3.2 | 12.9 | 0.00 | 0.61 | 0.03 | 46 | 1018.2 |
| 20260503191509 | 18 | 326 | 0.0 | 20.9 | 0.00 | 0.61 | 0.03 | 46 | 1018.5 |
| 20260503184611 | 17 | 315 | 1.6 | 17.7 | 0.00 | 0.61 | 0.03 | 49 | 1018.9 |
| 20260503183050 | 17 | 282 | 3.2 | 17.7 | 0.00 | 0.61 | 0.03 | 50 | 1019.1 |
| 20260503181607 | 17 | 230 | 1.6 | 11.3 | 0.00 | 0.61 | 0.03 | 46 | 1019.2 |
| 20260503180051 | 16 | 278 | 1.6 | 16.1 | 0.00 | 0.61 | 0.03 | 47 | 1019.3 |
| 20260503174545 | 16 | 302 | 1.6 | 8.0 | 0.00 | 0.61 | 0.03 | 49 | 1019.7 |
| 20260503173041 | 16 | 9 | 3.2 | 14.5 | 0.00 | 0.61 | 0.03 | 51 | 1019.8 |
| 20260503171527 | 16 | 259 | 4.8 | 16.1 | 0.00 | 0.61 | 0.03 | 49 | 1020.1 |